Tel Aviv, Israel

1:38 AM IDT on June 29, 2017 (GMT +0300)
Ben Gurion

Weather History for LLBG - October, 2013

Change the Weather History Date:

Monday, October 7, 2013

  Actual Average Record
Temperature  
Mean Temperature 70 °F -  
Max Temperature 79 °F 79 °F 87 °F (2003)
Min Temperature 60 °F 62 °F 60 °F (2013)
Cooling Degree Days 4    
Growing Degree Days 20 (Base 50)    
Moisture  
Dew Point 44 °F    
Average Humidity 40    
Maximum Humidity 55    
Minimum Humidity 23    
Precipitation  
Precipitation 0.00 in - - ()
Sea Level Pressure  
Sea Level Pressure 30.09 in    
Wind  
Wind Speed 6 mph ()    
Max Wind Speed 21 mph    
Max Gust Speed -    
Visibility 6.1 miles    
Events      
Averages and records for this station are not official NWS values.
T = Trace of Precipitation, MM = Missing Value Source: Averaged Metar Reports

Daily Weather History Graph

Daily Weather History Graph

Search for Another Location

Airport or City:

Trip Planner

Search our weather history database for the weather conditions in past years. The results will help you decide how hot, cold, wet, or windy it might be!

Date:

Astronomy

Oct. 07, 2013 Rise Set
Actual Time 6:38 AM IDT 6:17 PM IDT
Civil Twilight 6:13 AM IDT 6:42 PM IDT
Nautical Twilight 5:45 AM IDT 7:10 PM IDT
Astronomical Twilight 5:17 AM IDT 7:38 PM IDT
Moon 8:55 AM IDT (10/7) 7:57 PM IDT (10/7)
Length of Visible Light 12h 28m
Length of Day
11h 39m
Waxing Crescent, 7% of the Moon is Illuminated
Oct 7
Waxing Crescent
Oct 12
First Quarter
Oct 19
Full
Oct 27
Last Quarter
Nov 3
New

Hourly Weather History & Observations

Time (IDT) Temp. Dew Point Humidity Pressure Visibility Wind Dir Wind Speed Gust Speed Precip Events Conditions
12:20 AM 66.2 °F 44.6 °F 46% 30.06 in - Variable 3.5 mph - N/A   Clear
12:50 AM 66.2 °F 44.6 °F 46% 30.06 in - SE 5.8 mph - N/A   Clear
1:20 AM 64.4 °F 46.4 °F 52% 30.06 in - Variable 3.5 mph - N/A   Clear
1:50 AM 66.2 °F 44.6 °F 46% 30.06 in - Variable 3.5 mph - N/A   Clear
2:20 AM 64.4 °F 44.6 °F 49% 30.06 in - Variable 2.3 mph - N/A   Clear
2:50 AM 64.4 °F 44.6 °F 49% 30.06 in - Variable 3.5 mph - N/A   Clear
3:00 AM 65 °F 45 °F 37% 30.07 in 6 mi 3.5 mph - -   Mostly Cloudy
3:20 AM 64.4 °F 44.6 °F 49% 30.06 in - Variable 3.5 mph - N/A   Clear
3:50 AM 66.2 °F 44.6 °F 46% 30.06 in - ESE 4.6 mph - N/A   Clear
4:20 AM 64.4 °F 44.6 °F 49% 30.06 in - Variable 3.5 mph - N/A   Clear
4:50 AM 62.6 °F 44.6 °F 52% 30.06 in - Variable 2.3 mph - N/A   Clear
5:20 AM 62.6 °F 44.6 °F 52% 30.06 in - Variable 3.5 mph - N/A   Clear
5:50 AM 62.6 °F 46.4 °F 55% 30.06 in - Variable 3.5 mph - N/A   Clear
6:20 AM 60.8 °F 44.6 °F 55% 30.09 in - Variable 3.5 mph - N/A   Clear
6:50 AM 62.6 °F 44.6 °F 52% 30.09 in - Variable 2.3 mph - N/A   Clear
7:20 AM 62.6 °F 44.6 °F 52% 30.09 in - Variable 2.3 mph - N/A   Clear
7:50 AM 64.4 °F 44.6 °F 49% 30.09 in - Variable 3.5 mph - N/A   Clear
8:20 AM 66.2 °F 42.8 °F 43% 30.12 in - Variable 3.5 mph - N/A   Clear
8:50 AM 68.0 °F 42.8 °F 40% 30.12 in - Variable 2.3 mph - N/A   Clear
9:00 AM 70 °F 43 °F 26% 30.13 in 6 mi 2.3 mph - -   Partly Cloudy
9:20 AM 71.6 °F 41.0 °F 33% 30.12 in - NNE 8.1 mph - N/A   Clear
9:50 AM 73.4 °F 41.0 °F 31% 30.12 in - North 10.4 mph - N/A   Clear
10:20 AM 73.4 °F 39.2 °F 29% 30.12 in - North 13.8 mph - N/A   Clear
10:50 AM 75.2 °F 39.2 °F 27% 30.12 in - North 12.7 mph - N/A   Clear
11:20 AM 75.2 °F 39.2 °F 27% 30.12 in - North 11.5 mph - N/A   Clear
11:50 AM 77.0 °F 41.0 °F 28% 30.09 in - NNW 10.4 mph - N/A   Clear
12:20 PM 75.2 °F 42.8 °F 31% 30.09 in - NW 13.8 mph - N/A   Clear
12:50 PM 75.2 °F 42.8 °F 31% 30.09 in - NNW 16.1 mph - N/A   Clear
1:20 PM 77.0 °F 44.6 °F 32% 30.06 in - NNW 15.0 mph - N/A   Clear
1:50 PM 77.0 °F 46.4 °F 34% 30.06 in - NW 15.0 mph - N/A   Clear
2:20 PM 75.2 °F 46.4 °F 36% 30.06 in - North 13.8 mph - N/A   Clear
2:50 PM 77.0 °F 44.6 °F 32% 30.06 in - NNW 16.1 mph - N/A   Clear
3:00 PM 76 °F 45 °F 23% 30.08 in 6 mi North 15.0 mph - -   Mostly Cloudy
3:20 PM 75.2 °F 46.4 °F 36% 30.06 in - NNW 18.4 mph - N/A   Clear
3:50 PM 75.2 °F 46.4 °F 36% 30.06 in - NNW 18.4 mph - N/A   Clear
4:20 PM 75.2 °F 44.6 °F 34% 30.06 in - NNW 17.3 mph - N/A   Clear
4:50 PM 75.2 °F 46.4 °F 36% 30.09 in - NNW 20.7 mph - N/A   Clear
5:20 PM 73.4 °F 46.4 °F 38% 30.09 in - NNW 15.0 mph - N/A   Clear
5:50 PM 73.4 °F 46.4 °F 38% 30.09 in 6.2 mi North 16.1 mph - N/A   Partly Cloudy
6:20 PM 71.6 °F 44.6 °F 38% 30.09 in - North 17.3 mph - N/A   Clear
6:50 PM 71.6 °F 44.6 °F 38% 30.09 in 6.2 mi North 17.3 mph - N/A   Partly Cloudy
7:20 PM 69.8 °F 42.8 °F 38% 30.12 in - North 16.1 mph - N/A   Clear
7:50 PM 69.8 °F 42.8 °F 38% 30.12 in - North 12.7 mph - N/A   Clear
8:20 PM 69.8 °F 42.8 °F 38% 30.12 in - NNE 8.1 mph - N/A   Clear
8:50 PM 68.0 °F 42.8 °F 40% 30.12 in - NE 6.9 mph - N/A   Clear
9:00 PM 68 °F 43 °F 29% 30.15 in 6 mi NE 4.6 mph - -  
9:20 PM 68.0 °F 42.8 °F 40% 30.15 in - NE 4.6 mph - N/A   Clear
9:50 PM 68.0 °F 42.8 °F 40% 30.15 in - Variable 3.5 mph - N/A   Clear
10:20 PM 68.0 °F 42.8 °F 40% 30.12 in - Variable 1.2 mph - N/A   Clear
10:50 PM 66.2 °F 42.8 °F 43% 30.12 in - Calm Calm - N/A   Clear
11:20 PM 66.2 °F 44.6 °F 46% 30.12 in - SSE 4.6 mph - N/A   Clear
11:50 PM 64.4 °F 42.8 °F 45% 30.12 in - SE 4.6 mph - N/A   Clear